This is the latest recevied weather packets stored in our database for station/object EA8BQU-10. If no packets are shown the sender has not sent any weather packets the latest 10 day(s).
| Time | Temp. | Humidity | Pressure | Rain* | Wind** | Luminosity | Snow |
|---|---|---|---|---|---|---|---|
| 1777824049 | 22.22° C | 88% | 1016.6 hPa | - | - | - | - |
| 1777823149 | 22.78° C | 87% | 1016.6 hPa | - | - | - | - |
| 1777821348 | 22.22° C | 89% | 1017.2 hPa | - | - | - | - |
| 1777817748 | 22.22° C | 90% | 1017.3 hPa | - | - | - | - |
| 1777815948 | 21.67° C | 92% | 1017.5 hPa | - | - | - | - |
| 1777813247 | 21.67° C | 94% | 1017.8 hPa | - | - | - | - |
| 1777809646 | 21.11° C | 96% | 1018.5 hPa | - | - | - | - |
| 1777807849 | 21.11° C | 96% | 1018.5 hPa | - | - | - | - |
| 1777806949 | 21.11° C | 96% | 1018.6 hPa | - | - | - | - |
| 1777806049 | 21.11° C | 97% | 1018.7 hPa | - | - | - | - |
| 1777805149 | 21.11° C | 97% | 1018.7 hPa | - | - | - | - |
| 1777803348 | 21.11° C | 97% | 1018.6 hPa | - | - | - | - |
| 1777801548 | 20.56° C | 99% | 1018.4 hPa | - | - | - | - |
| 1777800648 | 21.11° C | 99% | 1018.5 hPa | - | - | - | - |
| 1777799748 | 21.11° C | 99% | 1018.5 hPa | - | - | - | - |
| 1777798848 | 21.11° C | 99% | 1018.5 hPa | - | - | - | - |
| 1777797947 | 20.56° C | 100% | 1018.2 hPa | - | - | - | - |
| 1777797047 | 20.56° C | 99% | 1018.2 hPa | - | - | - | - |
| 1777796147 | 20.56° C | 100% | 1018.1 hPa | - | - | - | - |
| 1777795247 | 20.56° C | 100% | 1018.1 hPa | - | - | - | - |
| 1777794346 | 20.56° C | 100% | 1017.8 hPa | - | - | - | - |
| 1777793446 | 20.56° C | 100% | 1017.6 hPa | - | - | - | - |
| 1777792546 | 20.56° C | 100% | 1017.6 hPa | - | - | - | - |
| 1777791646 | 20.56° C | 100% | 1017.8 hPa | - | - | - | - |
| 1777790745 | 20.56° C | 100% | 1017.6 hPa | - | - | - | - |
* Rain since midnight (hover to see other rain measurements)
** Current wind speed in m/s (hover to see current wind gust speed)